• In Deutschland
  • Länderverzeichnis
  • Für 7 Tage
  • Wassertemperatur
  • Satellitenkarten
  • Wetterkarte
  • Widgets
  • user-avatar
    Anmelden

    Stündliche Wetter Gomel

    Heute, 20 September, Mittwoch

    Zeit Temperatur Niederschläge Wind Luftdruck Luftfeuchtigkeit
    00:00 +13°C° 0,1 mm 1 m/S 754 mmHg 74%
    01:00 +13°C° 0,1 mm 1 m/S 754 mmHg 77%
    02:00 +13°C° 0 mm 2 m/S 753 mmHg 76%
    03:00 +12°C° 0 mm 2 m/S 753 mmHg 78%
    04:00 +12°C° 0 mm 2 m/S 753 mmHg 79%
    05:00 +12°C° 0 mm 2 m/S 753 mmHg 81%
    06:00 +11°C° 0 mm 3 m/S 753 mmHg 80%
    07:00 +12°C° 0 mm 3 m/S 753 mmHg 79%
    08:00 +12°C° 0 mm 3 m/S 753 mmHg 77%
    09:00 +13°C° 0 mm 4 m/S 753 mmHg 75%
    10:00 +14°C° 0 mm 4 m/S 753 mmHg 72%
    11:00 +14°C° 0 mm 5 m/S 753 mmHg 69%
    12:00 +15°C° 0 mm 5 m/S 753 mmHg 67%
    13:00 +16°C° 0 mm 5 m/S 753 mmHg 65%
    14:00 +17°C° 0 mm 5 m/S 752 mmHg 63%
    15:00 +16°C° 0,1 mm 5 m/S 752 mmHg 66%
    16:00 +15°C° 0,1 mm 5 m/S 752 mmHg 69%
    17:00 +15°C° 0,1 mm 5 m/S 752 mmHg 71%
    18:00 +14°C° 0,2 mm 5 m/S 752 mmHg 74%
    19:00 +14°C° 0,2 mm 5 m/S 752 mmHg 76%
    20:00 +13°C° 0,2 mm 5 m/S 751 mmHg 78%
    21:00 +13°C° 0,2 mm 5 m/S 751 mmHg 78%
    22:00 +13°C° 0,2 mm 5 m/S 751 mmHg 77%
    23:00 +13°C° 0,2 mm 5 m/S 751 mmHg 77%

    Morgen, 21 September, Donnerstag

    Zeit Temperatur Niederschläge Wind Luftdruck Luftfeuchtigkeit
    00:00 +13°C° 0,2 mm 5 m/S 751 mmHg 78%
    01:00 +13°C° 0,2 mm 5 m/S 750 mmHg 79%
    02:00 +13°C° 0,2 mm 5 m/S 750 mmHg 79%
    03:00 +13°C° 0,5 mm 6 m/S 750 mmHg 82%
    04:00 +13°C° 0,5 mm 6 m/S 749 mmHg 84%
    05:00 +11°C° 0,5 mm 6 m/S 749 mmHg 86%
    06:00 +13°C° 0,2 mm 6 m/S 749 mmHg 85%
    07:00 +13°C° 0,2 mm 6 m/S 748 mmHg 84%
    08:00 +14°C° 0,2 mm 7 m/S 748 mmHg 82%
    09:00 +15°C° 0 mm 7 m/S 748 mmHg 77%
    10:00 +17°C° 0 mm 6 m/S 748 mmHg 72%
    11:00 +20°C° 0 mm 6 m/S 748 mmHg 67%
    12:00 +21°C° 0 mm 6 m/S 748 mmHg 63%
    13:00 +23°C° 0 mm 6 m/S 748 mmHg 59%
    14:00 +24°C° 0 mm 6 m/S 748 mmHg 55%
    15:00 +24°C° 0 mm 6 m/S 747 mmHg 57%
    16:00 +24°C° 0 mm 6 m/S 747 mmHg 59%
    17:00 +23°C° 0 mm 5 m/S 747 mmHg 62%
    18:00 +22°C° 0 mm 6 m/S 747 mmHg 62%
    19:00 +22°C° 0 mm 7 m/S 748 mmHg 61%
    20:00 +21°C° 0 mm 7 m/S 748 mmHg 61%
    21:00 +21°C° 0 mm 7 m/S 748 mmHg 62%
    22:00 +20°C° 0 mm 7 m/S 748 mmHg 63%
    23:00 +20°C° 0 mm 7 m/S 748 mmHg 63%

    übermorgen, 22 September, Freitag

    Zeit Temperatur Niederschläge Wind Luftdruck Luftfeuchtigkeit
    00:00 +18°C° 0 mm 7 m/S 748 mmHg 63%
    01:00 +18°C° 0 mm 7 m/S 749 mmHg 64%
    02:00 +19°C° 0 mm 6 m/S 749 mmHg 64%
    03:00 +17°C° 0 mm 6 m/S 749 mmHg 66%
    04:00 +17°C° 0 mm 6 m/S 749 mmHg 67%
    05:00 +16°C° 0 mm 6 m/S 749 mmHg 69%
    06:00 +17°C° 0 mm 6 m/S 749 mmHg 69%
    07:00 +17°C° 0 mm 7 m/S 750 mmHg 69%
    08:00 +17°C° 0 mm 7 m/S 750 mmHg 68%
    09:00 +20°C° 0 mm 6 m/S 751 mmHg 65%
    10:00 +21°C° 0 mm 6 m/S 751 mmHg 61%
    11:00 +22°C° 0 mm 6 m/S 751 mmHg 57%
    12:00 +23°C° 0 mm 6 m/S 751 mmHg 54%
    13:00 +24°C° 0 mm 6 m/S 751 mmHg 51%
    14:00 +26°C° 0 mm 6 m/S 751 mmHg 49%
    15:00 +24°C° 0 mm 6 m/S 752 mmHg 52%
    16:00 +23°C° 0 mm 6 m/S 752 mmHg 55%
    17:00 +22°C° 0 mm 5 m/S 752 mmHg 59%
    18:00 +21°C° 0 mm 6 m/S 752 mmHg 59%
    19:00 +20°C° 0 mm 6 m/S 752 mmHg 60%
    20:00 +18°C° 0 mm 7 m/S 753 mmHg 61%
    21:00 +17°C° 0 mm 7 m/S 753 mmHg 61%
    22:00 +17°C° 0 mm 7 m/S 753 mmHg 61%
    23:00 +16°C° 0 mm 7 m/S 754 mmHg 61%

    23 September, Samstag

    Zeit Temperatur Niederschläge Wind Luftdruck Luftfeuchtigkeit
    00:00 +15°C° 0 mm 7 m/S 754 mmHg 61%
    01:00 +14°C° 0 mm 6 m/S 754 mmHg 60%
    02:00 +14°C° 0 mm 6 m/S 754 mmHg 60%
    03:00 +13°C° 0 mm 6 m/S 754 mmHg 61%
    04:00 +13°C° 0 mm 6 m/S 755 mmHg 61%
    05:00 +11°C° 0 mm 6 m/S 755 mmHg 62%
    06:00 +13°C° 0 mm 6 m/S 755 mmHg 62%
    07:00 +13°C° 0 mm 6 m/S 755 mmHg 62%
    08:00 +13°C° 0 mm 6 m/S 756 mmHg 62%
    09:00 +15°C° 0 mm 6 m/S 756 mmHg 60%
    10:00 +16°C° 0 mm 6 m/S 756 mmHg 57%
    11:00 +17°C° 0 mm 6 m/S 756 mmHg 54%
    12:00 +19°C° 0 mm 6 m/S 756 mmHg 53%
    13:00 +20°C° 0 mm 6 m/S 756 mmHg 52%
    14:00 +20°C° 0 mm 5 m/S 756 mmHg 51%
    15:00 +20°C° 0 mm 5 m/S 756 mmHg 55%
    16:00 +19°C° 0 mm 4 m/S 756 mmHg 58%
    17:00 +18°C° 0 mm 4 m/S 756 mmHg 61%
    18:00 +17°C° 0 mm 4 m/S 756 mmHg 63%
    19:00 +15°C° 0 mm 4 m/S 756 mmHg 64%
    20:00 +14°C° 0 mm 4 m/S 757 mmHg 66%
    21:00 +14°C° 0 mm 4 m/S 757 mmHg 66%
    22:00 +13°C° 0 mm 4 m/S 757 mmHg 67%
    23:00 +13°C° 0 mm 4 m/S 756 mmHg 68%

    24 September, Sonntag

    Zeit Temperatur Niederschläge Wind Luftdruck Luftfeuchtigkeit
    00:00 +13°C° 0 mm 4 m/S 756 mmHg 68%
    01:00 +13°C° 0 mm 4 m/S 757 mmHg 68%
    02:00 +12°C° 0 mm 4 m/S 757 mmHg 68%
    03:00 +12°C° 0 mm 4 m/S 757 mmHg 67%
    04:00 +12°C° 0 mm 4 m/S 757 mmHg 65%
    05:00 +12°C° 0 mm 4 m/S 757 mmHg 63%
    06:00 +13°C° 0 mm 4 m/S 757 mmHg 62%
    07:00 +13°C° 0 mm 5 m/S 757 mmHg 62%
    08:00 +13°C° 0 mm 5 m/S 757 mmHg 61%
    09:00 +14°C° 0 mm 5 m/S 758 mmHg 58%
    10:00 +15°C° 0 mm 5 m/S 758 mmHg 56%
    11:00 +16°C° 0 mm 5 m/S 758 mmHg 54%
    12:00 +17°C° 0 mm 5 m/S 758 mmHg 53%
    13:00 +19°C° 0 mm 5 m/S 758 mmHg 51%
    14:00 +20°C° 0 mm 5 m/S 758 mmHg 50%
    15:00 +19°C° 0 mm 5 m/S 758 mmHg 53%
    16:00 +18°C° 0 mm 4 m/S 758 mmHg 57%
    17:00 +17°C° 0 mm 4 m/S 758 mmHg 60%
    18:00 +15°C° 0 mm 4 m/S 758 mmHg 61%
    19:00 +14°C° 0 mm 4 m/S 758 mmHg 61%
    20:00 +13°C° 0 mm 4 m/S 759 mmHg 62%
    21:00 +13°C° 0 mm 4 m/S 759 mmHg 63%
    22:00 +13°C° 0 mm 3 m/S 759 mmHg 64%
    23:00 +12°C° 0 mm 3 m/S 759 mmHg 65%

    25 September, Montag

    Zeit Temperatur Niederschläge Wind Luftdruck Luftfeuchtigkeit
    00:00 +12°C° 0 mm 3 m/S 759 mmHg 66%
    01:00 +12°C° 0 mm 3 m/S 759 mmHg 67%
    02:00 +11°C° 0 mm 4 m/S 759 mmHg 68%
    03:00 +11°C° 0 mm 4 m/S 759 mmHg 68%
    04:00 +12°C° 0 mm 4 m/S 759 mmHg 67%
    05:00 +12°C° 0 mm 4 m/S 759 mmHg 66%
    06:00 +12°C° 0 mm 4 m/S 759 mmHg 66%
    07:00 +12°C° 0 mm 4 m/S 759 mmHg 66%
    08:00 +13°C° 0 mm 4 m/S 759 mmHg 66%
    09:00 +14°C° 0 mm 4 m/S 759 mmHg 62%
    10:00 +17°C° 0 mm 4 m/S 759 mmHg 58%
    11:00 +19°C° 0 mm 4 m/S 759 mmHg 54%
    12:00 +19°C° 0 mm 5 m/S 759 mmHg 53%
    13:00 +20°C° 0 mm 5 m/S 759 mmHg 52%
    14:00 +21°C° 0 mm 5 m/S 759 mmHg 50%
    15:00 +20°C° 0 mm 5 m/S 759 mmHg 54%
    16:00 +19°C° 0 mm 4 m/S 759 mmHg 58%
    17:00 +19°C° 0 mm 4 m/S 759 mmHg 62%
    18:00 +18°C° 0 mm 4 m/S 759 mmHg 62%
    19:00 +17°C° 0 mm 4 m/S 759 mmHg 63%
    20:00 +17°C° 0 mm 4 m/S 759 mmHg 63%
    21:00 +15°C° 0 mm 4 m/S 759 mmHg 63%
    22:00 +15°C° 0 mm 4 m/S 759 mmHg 63%
    23:00 +15°C° 0 mm 5 m/S 759 mmHg 63%
    Mehr zeigen